www.pogodaiklimat.ru

Погода и климат >> Архив погоды >> Индия >> Мадхья-Прадеш >> Сагар


ПОГОДА в Сагаре

  • Прогноз погоды в Сагаре
  • Монитор погоды в Сагаре

АРХИВ ПОГОДЫ в Сагаре

Время (UTC), дата Ветер
(напр.,м/с)
 
Видим.   Явления Облачность Т
(С)
Тd
(С)
f
(%)
Тe
(С)
Тes
(С)
Комфортность P
(гПа)
Po
(гПа)
Тmin
(С)
Tmax
(С)
R
(мм)
R24
(мм)
S
(см)
06 17.02 СЗ 1 10 км ясно +20.6 +6.2 39 +23 +39 комфорт 1015.7 953.4
09 17.02 З 1 10 км ясно +24.2 +5.9 31 +24 +36 комфорт 1011.3 950.1
12 17.02 З 1 10 км ясно +22.0 +6.2 36 +23 +23 комфорт 1011.1 949.3 +25.0
15 17.02 штиль 0 4000 м ясно +17.6 +6.9 49 +18 +18 1013.1 950.4
18 17.02 штиль 0 4000 м ясно +15.0 +8.6 66 +15 +15 1013.0 949.6
21 17.02 штиль 0 4000 м 4/0
[Ac trans]
+14.0 +8.7 70 +14 +14 1012.0 948.5
00 18.02 штиль 0 4000 м ясно +12.8 +7.3 69 +12 +12 1012.6 948.9
03 18.02 штиль 0 10 км 3/0
[Ac trans]
+17.0 +6.1 49 +17 +21 1013.6 950.7 +11.2
06 18.02 З 1 10 км 5/0
[Ac trans Ci sp]
+24.0 +6.1 32 +24 +37 комфорт 1011.8 950.4
09 18.02 З 1 10 км 8/5 600 м
[Cu Sc Ac trans]
+24.8 +5.2 28 +24 +28 комфорт 1009.1 948.0
12 18.02 штиль 0 10 км 5/3 750 м
[Cu med, cong Ac trans]
+24.0 +7.7 35 +24 +25 комфорт 1008.5 947.2 +26.2
15 18.02 штиль 0 4000 м 4/0
[Ac trans]
+21.0 +9.2 47 +22 +22 комфорт 1009.6 947.7
18 18.02 штиль 0 4000 м ясно +19.4 +8.8 50 +20 +20 1009.9 947.8
21 18.02 штиль 0 4000 м ясно +18.0 +9.3 57 +18 +18 1008.8 946.4
00 19.02 штиль 0 4000 м ясно +18.6 +8.3 51 +19 +19 1010.4 948.0
03 19.02 штиль 0 10 км 1/0
[Ac trans]
+20.0 +8.7 48 +21 +26 комфорт 1013.6 951.2 +15.2
06 19.02 ЮЗ 1 10 км ясно +28.0 +6.1 25 +27 +44 жарко 1013.0 952.3
09 19.02 СЗ 2 10 км 4/0
[Ac trans Ci fib]
+30.0 +7.4 24 +29 +38 жарко 1010.5 950.3
12 19.02 штиль 0 10 км 1/0
[Ci fib]
+28.2 +9.6 31 +28 +29 жарко 1010.9 950.5 +30.5
15 19.02 штиль 0 4000 м ясно +23.0 +9.3 42 +25 +25 комфорт 1014.3 952.6
18 19.02 штиль 0 4000 м ясно +21.6 +10.0 48 +23 +23 комфорт 1015.4 953.3
21 19.02 С 1 4000 м 6/0
[Ac trans Ci fib]
+20.6 +8.6 46 +23 +23 комфорт 1014.3 952.1
00 20.02 штиль 0 4000 м 5/0
[Ci sp]
+19.2 +9.0 52 +20 +20 1014.3 951.9
03 20.02 ЮВ 2 4000 м 4/0
[Ci sp]
+22.0 +9.6 45 +24 +27 комфорт 1016.5 954.4 +17.7
06 20.02 ЮВ 1 10 км 3/0
[Ci sp]
+29.0 +11.3 33 +30 +47 жарко 1015.5 954.9
09 20.02 штиль 0 10 км ясно +31.2 +9.4 26 +31 +44 жарко 1012.2 952.3
12 20.02 В 1 10 км ясно +29.0 +10.4 31 +29 +29 жарко 1012.5 952.0 +32.4
15 20.02 ЮВ 1 4000 м ясно +24.4 +11.1 43 +26 +26 жарко 1015.8 954.4
18 20.02 СВ 2 4000 м 4/0
[Ci sp]
+22.0 +10.9 49 +24 +24 комфорт 1017.3 955.1
21 20.02 штиль 0 4000 м 4/0
[Ci sp]
+20.6 +11.3 55 +22 +22 комфорт 1016.5 954.2
00 21.02 СВ 3 4000 м {дождь} 5/0
[Ac trans Ci fib]
+20.0 +12.5 62 +22 +22 комфорт 1016.3 953.8 0.3
03 21.02 штиль 0 10 км 4/0
[Ac trans Ci fib]
+22.2 +12.4 54 +25 +30 комфорт 1017.5 955.5 +12.4 0.3
06 21.02 З 3 10 км ясно +30.4 +18.8 50 +36 +49 очень
душно
1015.6 955.3
09 21.02 З 4 10 км ясно +33.4 +17.1 38 +37 +44 очень
душно
1017.7 952.2
12 21.02 З 3 10 км ясно +32.0 +15.6 37 +34 +35 душно 1011.4 951.5 +33.7
15 21.02 штиль 0 4000 м 3/0
[Ac trans]
+27.8 +17.4 53 +32 +32 душно 1013.2 952.5
18 21.02 штиль 0 4000 м 3/0
[Ci sp]
+24.4 +17.6 66 +28 +28 душно 1014.6 953.2
21 21.02 штиль 0 4000 м 3/0
[Ci sp]
+23.0 +17.7 72 +28 +28 душно 1014.3 952.6
00 22.02 штиль 0 4000 м 4/0
[Ci sp]
+20.0 +15.8 77 +22 +22 комфорт 1013.6 951.2
03 22.02 штиль 0 10 км 3/0
[Ac trans]
+21.2 +14.3 65 +24 +29 комфорт 1015.7 953.6 +17.6
06 22.02 СЗ 1 10 км 3/0
[Ci fib]
+27.8 +13.6 42 +30 +46 жарко 1014.9 954.1
09 22.02 З 1 10 км ясно +31.2 +13.3 34 +32 +45 жарко 1011.3 951.4
12 22.02 З 1 10 км ясно +29.0 +14.7 42 +31 +32 жарко 1011.3 950.9 +31.6
15 22.02 штиль 0 4000 м ясно +24.0 +14.3 55 +27 +27 жарко 1014.2 952.6
18 22.02 СВ 1 4000 м ясно +21.0 +17.9 82 +26 +26 душно 1015.1 952.9
21 22.02 С 1 4000 м ясно +19.2 +16.3 83 +22 +22 комфорт 1014.6 951.8
00 23.02 штиль 0 4000 м ясно +16.2 +14.9 92 +16 +16 1014.7 951.6
03 23.02 СВ 1 10 км ясно +17.6 +9.2 58 +19 +24 1016.7 953.7 +13.5
06 23.02 СВ 1 10 км ясно +23.4 +10.6 44 +25 +44 комфорт 1015.0 953.4
09 23.02 штиль 0 10 км 4/0
[Ci sp]
+26.4 +12.5 42 +28 +41 жарко 1011.1 950.3
12 23.02 З 1 10 км 8/0
[Ac trans Ci sp]
+25.2 +13.4 48 +27 +27 жарко 1011.2 950.2 +28.0
15 23.02 штиль 0 4000 м 4/0
[Ac trans]
+20.4 +13.0 62 +22 +22 комфорт 1013.2 951.0
18 23.02 штиль 0 4000 м ясно +18.0 +11.7 67 +18 +18 1013.8 951.0
21 23.02 штиль 0 4000 м ясно +17.0 +11.8 71 +17 +17 1012.8 949.9
00 24.02 штиль 0 4000 м 6/0
[Ac trans]
+16.4 +11.1 71 +16 +16 1011.5 948.7
03 24.02 штиль 0 10 км 8/3 600 м
[Sc Ac trans]
+18.0 +9.7 58 +18 +20 1012.6 949.9 +15.0

 

Местоположение метеостанции Сагар (Мадхья-Прадеш, Индия): широта 23.85 долгота 78.75 высота над уровнем моря 551 м.

В архиве по умолчанию представлена погода в Сагаре за последнюю неделю. Архивные данные за месяц целиком и за предыдущие месяцы, начиная с января 2011 года, Вы можете получить, выбрав интересующий диапазон дат из раскрывающегося списка и нажав кнопку "Ввод!".


*Определитесь, кто Вы:
робот инопланетянин человек

Внимание! Время в таблицах - всемирное. Для получения местного времени необходимо прибавить поправку, которая равна 5.5 ч.

Смотрите также архив погоды в соседних городах и на ближайших метеорологических станциях:

Погода в Дамо (Мадхья-Прадеш, Индия) (71 км)
Погода в Тикамгархе (Мадхья-Прадеш, Индия) (103 км)
Погода в Нарсингпуре (Мадхья-Прадеш, Индия) (109 км)
Погода в Райсене (Мадхья-Прадеш, Индия) (111 км)
Погода в Джабалпере (Мадхья-Прадеш, Индия) (142 км)
Погода в Ноугонге (Мадхья-Прадеш, Индия) (153 км)
Погода в Бхопале (Мадхья-Прадеш, Индия) (156 км)
Погода в Хошангабаде (Мадхья-Прадеш, Индия) (156 км)
Погода в Пачмарае (Мадхья-Прадеш, Индия) (157 км)
Погода в Гуне (Мадхья-Прадеш, Индия) (170 км)

Пояснения к столбцам:

Ветер - указаны скорость ветра в м/с - средняя за 10 мин, порывы в срок и между сроками (в фигурных скобках) и направление, откуда дует ветер: С - северный, СВ - северо-восточный, В - восточный, ЮВ - юго-восточный, Ю - южный, ЮЗ - юго-западный, З - западный, СЗ - северо-западный.
Видимость - горизонтальная дальность видимости в метрах или километрах. При видимости от 1 до 10 км при отсутствии осадков обычно наблюдается дымка, при ухудшении видимости до 1 км и менее - туман. В сухую погоду видимость может ухудшаться дымом, пылью или мглою.
Явления - указаны атмосферные явления, наблюдавшиеся в срок или в последний час перед сроком; фигурными скобками обозначены явления, наблюдавшиеся между сроками (за 1-3 часа до срока); квадратными скобками обозначены град или гололедные отложения с указанием их диаметра в мм.
Облачность - указаны через наклонную черту общая и нижняя облачность в баллах и высота нижней границы облаков в метрах; квадратными скобками обозначены формы облаков: Ci - перистые, Cs - перисто-слоистые, Cc - перисто-кучевые, Ac - высококучевые, As - высокослоистые, Sc - слоисто-кучевые, Ns - слоисто-дождевые, Cu - кучевые, Cb - кучево-дождевые. Подробнее классификацию облаков см. в Атласе облаков (PDF).
T - Температура воздуха - температура, измеренная на высоте 2 м над землей.
Td - Температура точки росы - температура, при понижении до которой содержащийся в воздухе водяной пар достигнет насыщения.
f - Относительная влажность воздуха - влажноcть воздуха, измеренная на высоте 2 м над землей.
Te - Эффективная температура - температура, которую ощущает одетый по сезону человек в тени. Характеристика душности погоды. При расчете учитывается влияние влажности воздуха и скорости ветра на теплоощущения человека.
Tes - Эффективная температура на солнце - температура, которую ощущает человек, с поправкой на солнечный нагрев. Характеристика знойности погоды. Зависит от высоты солнца над горизонтом, облачности и скорости ветра. Ночью, в пасмурную погоду, а также при ветре 12 м/с и более поправка равна нулю.
P - Атмосферное давление - приведенное к уровню моря атмосферное давление.
Po - Атмосферное давление - измеренное на уровне метеостанции атмосферное давление.
Tmin - Минимальная температура - минимум температуры воздуха на высоте 2 м над землей.
Tmax - Максимальная температура - максимум температуры воздуха на высоте 2 м над землей.
R - Количество осадков - Количество выпавших осадков за период времени, мм. При наведении курсора мыши на число - период времени, за который выпало указанное количество осадков.
R24 - Количество осадков - Количество выпавших осадков за 24 часа, мм.
S - Снежный покров - Высота снежного покрова, см. При наведении курсора мыши на число - состояние снежного покрова и степень покрытия местности в баллах.